Date String (YYYY-MM-DD hh:mm:ss) UTC,Instrument flags,Ambient pressure (hPa),Sample flow (lpm),Bypass flow (lpm),Sample temperature (°C),Ambient temperature (°C),ASC tube jacket temperature (°C),LED temperature (°C),Box temperature (°C),Sample RH (%),Span deviation,Mass concentration (μg/m³),Mass concentration (μg/m³),Mass concentration (μg/m³)
DateTimeUTC,F1_M11,P_M11,Q1_M11,Q2_M11,T1_M11,T2_M11,T3_M11,T4_M11,T5_M11,U1_M11,ZSPAN_M11,X0_M11,X2_M11,X1_M11
2022-06-05 09:00:00,,0819.6,5.00,0.00,30.1,28.9,00.0,39.0,31.9,16.6,0000.0,0009.08,0003.97,0002.94
2022-06-05 09:01:00,,0819.5,5.01,0.00,30.1,28.9,00.0,39.0,31.9,16.2,0000.0,0009.37,0003.99,0002.92
2022-06-05 09:02:00,,0819.5,4.98,0.00,30.1,28.9,00.0,39.0,31.9,15.8,0000.0,0010.33,0004.01,0002.91
2022-06-05 09:03:00,,0819.5,5.01,0.00,30.1,28.9,00.0,39.0,31.9,15.8,0000.0,0011.49,0003.97,0002.87
2022-06-05 09:04:00,,0819.5,4.99,0.00,30.1,28.9,00.0,39.0,31.9,16.4,0000.0,0012.75,0003.96,0002.86
2022-06-05 09:05:00,,0819.5,5.00,0.00,30.1,28.9,00.0,39.0,31.9,16.3,0000.0,0014.17,0003.93,0002.86
2022-06-05 09:06:00,,0819.5,4.99,0.00,30.1,28.9,00.0,39.0,31.9,16.4,0000.0,0014.64,0003.85,0002.83
2022-06-05 09:07:00,,0819.5,5.00,0.00,30.1,28.9,00.0,39.0,31.9,16.7,0000.0,0015.17,0003.86,0002.82
2022-06-05 09:08:00,,0819.5,5.01,0.00,30.1,28.9,00.0,39.0,31.9,17.6,0000.0,0015.03,0003.85,0002.79
2022-06-05 09:09:00,,0819.5,4.99,0.00,30.1,28.9,00.0,39.0,31.9,18.6,0000.0,0014.99,0003.88,0002.80
2022-06-05 09:10:00,,0819.5,5.02,0.00,30.1,28.9,00.0,39.0,31.9,18.6,0000.0,0015.18,0003.90,0002.79
2022-06-05 09:11:00,,0819.5,4.99,0.00,30.1,28.9,00.0,39.0,31.9,18.0,0000.0,0015.63,0003.92,0002.79
2022-06-05 09:12:00,,0819.4,4.99,0.00,30.1,28.9,00.0,39.0,31.9,16.7,0000.0,0016.12,0003.93,0002.79
2022-06-05 09:13:00,,0819.4,5.01,0.00,30.1,28.9,00.0,39.0,31.9,16.4,0000.0,0015.70,0003.93,0002.78
2022-06-05 09:14:00,,0819.4,4.98,0.00,30.1,28.9,00.0,39.0,31.9,16.0,0000.0,0015.06,0003.93,0002.77
2022-06-05 09:15:00,,0819.4,5.00,0.00,30.1,28.9,00.0,39.0,31.9,15.6,0000.0,0013.77,0003.90,0002.76
2022-06-05 09:16:00,,0819.4,5.01,0.00,30.1,28.9,00.0,39.0,31.9,15.6,0000.0,0011.99,0003.92,0002.75
2022-06-05 09:17:00,,0819.4,5.00,0.00,30.1,28.9,00.0,39.0,31.9,15.5,0000.0,0011.33,0003.94,0002.74
2022-06-05 09:18:00,,0819.4,4.99,0.00,30.1,28.9,00.0,39.0,31.9,15.2,0000.0,0010.67,0003.92,0002.73
2022-06-05 09:19:00,,0819.4,4.99,0.00,30.1,28.9,00.0,39.0,31.9,15.2,0000.0,0010.64,0003.91,0002.71
2022-06-05 09:20:00,,0819.4,5.00,0.00,30.1,28.9,00.0,39.0,31.9,15.4,0000.0,0010.62,0003.90,0002.69
2022-06-05 09:21:00,,0819.4,5.00,0.00,30.1,28.9,00.0,39.0,31.9,16.0,0000.0,0010.45,0003.85,0002.67
2022-06-05 09:22:00,,0819.4,4.98,0.00,30.1,28.9,00.0,39.0,31.9,16.8,0000.0,0010.22,0003.85,0002.68
2022-06-05 09:23:00,,0819.4,4.99,0.00,30.1,28.9,00.0,39.0,31.9,16.8,0000.0,0010.05,0003.86,0002.70
2022-06-05 09:24:00,,0819.5,5.01,0.00,30.1,28.9,00.0,39.0,31.9,16.6,0000.0,0009.44,0003.83,0002.70
2022-06-05 09:25:00,,0819.5,4.99,0.00,30.1,28.9,00.0,39.0,31.9,16.3,0000.0,0008.95,0003.84,0002.71
2022-06-05 09:26:00,,0819.4,4.98,0.00,30.1,28.9,00.0,39.0,31.9,17.3,0000.0,0009.13,0003.85,0002.75
2022-06-05 09:27:00,,0819.4,5.01,0.00,30.1,28.9,00.0,39.0,31.9,17.2,0000.0,0009.44,0003.84,0002.78
2022-06-05 09:28:00,,0819.4,5.01,0.00,30.1,28.9,00.0,39.0,31.9,17.6,0000.0,0009.71,0003.84,0002.83
2022-06-05 09:29:00,,0819.4,5.00,0.00,30.1,28.9,00.0,39.0,32.0,17.3,0000.0,0009.87,0003.89,0002.88
2022-06-05 09:30:00,,0819.4,5.00,0.00,30.1,28.9,00.0,39.0,31.9,17.1,0000.0,0010.31,0003.89,0002.93
2022-06-05 09:31:00,,0819.5,5.00,0.00,30.1,28.9,00.0,39.0,32.0,16.9,0000.0,0010.31,0003.92,0002.97
2022-06-05 09:32:00,,0819.5,4.99,0.00,30.1,29.0,00.0,39.0,31.9,16.9,0000.0,0010.47,0003.95,0003.00
2022-06-05 09:33:00,,0819.5,5.02,0.00,30.1,29.0,00.0,39.0,32.0,16.6,0000.0,0010.31,0003.92,0002.99
2022-06-05 09:34:00,,0819.5,5.01,0.00,30.1,29.0,00.0,39.0,31.9,16.6,0000.0,0009.78,0003.87,0002.97
2022-06-05 09:35:00,,0819.5,4.99,0.00,30.1,29.0,00.0,39.0,32.0,16.3,0000.0,0010.47,0003.90,0003.00
2022-06-05 09:36:00,,0819.5,5.00,0.00,30.1,29.0,00.0,39.0,32.0,16.6,0000.0,0011.02,0003.90,0003.04
2022-06-05 09:37:00,,0819.5,5.00,0.00,30.1,29.0,00.0,39.0,32.0,17.1,0000.0,0011.11,0003.89,0003.05
2022-06-05 09:38:00,,0819.5,5.00,0.00,30.1,29.0,00.0,39.0,32.0,17.8,0000.0,0011.31,0003.88,0003.07
2022-06-05 09:39:00,,0819.5,5.01,0.00,30.1,29.0,00.0,39.0,32.0,18.6,0000.0,0011.66,0003.88,0003.10
2022-06-05 09:40:00,,0819.5,5.00,0.00,30.1,29.0,00.0,39.0,32.0,18.8,0000.0,0012.71,0003.88,0003.13
2022-06-05 09:41:00,,0819.5,4.99,0.00,30.1,29.1,00.0,39.0,32.0,19.2,0000.0,0012.44,0003.91,0003.16
2022-06-05 09:42:00,,0819.5,5.01,0.00,30.1,29.1,00.0,39.0,32.0,19.4,0000.0,0012.51,0003.92,0003.18
2022-06-05 09:43:00,,0819.5,5.00,0.00,30.2,29.1,00.0,39.0,32.0,19.9,0000.0,0013.20,0003.97,0003.21
2022-06-05 09:44:00,,0819.5,4.99,0.00,30.2,29.1,00.0,39.0,32.0,19.4,0000.0,0013.74,0004.03,0003.25
2022-06-05 09:45:00,,0819.5,4.99,0.00,30.2,29.1,00.0,39.1,32.0,19.3,0000.0,0013.98,0004.09,0003.28
2022-06-05 09:46:00,,0819.6,5.00,0.00,30.2,29.1,00.0,39.1,32.0,19.5,0000.0,0013.50,0004.13,0003.31
2022-06-05 09:47:00,,0819.5,5.01,0.00,30.2,29.1,00.0,39.1,32.0,19.4,0000.0,0014.07,0004.16,0003.34
2022-06-05 09:48:00,,0819.5,4.99,0.00,30.2,29.1,00.0,39.1,32.0,19.3,0000.0,0014.35,0004.23,0003.38
2022-06-05 09:49:00,,0819.6,5.00,0.00,30.2,29.1,00.0,39.1,32.0,19.2,0000.0,0013.97,0004.29,0003.40
2022-06-05 09:50:00,,0819.6,5.00,0.00,30.2,29.1,00.0,39.1,32.0,19.2,0000.0,0014.00,0004.34,0003.42
2022-06-05 09:51:00,,0819.5,5.01,0.00,30.2,29.1,00.0,39.1,32.0,19.2,0000.0,0013.25,0004.38,0003.43
2022-06-05 09:52:00,,0819.5,4.99,0.00,30.2,29.1,00.0,39.1,32.0,19.2,0000.0,0013.19,0004.44,0003.46
2022-06-05 09:53:00,,0819.6,5.00,0.00,30.2,29.1,00.0,39.1,32.0,19.1,0000.0,0013.18,0004.46,0003.47
2022-06-05 09:54:00,,0819.5,5.00,0.00,30.2,29.1,00.0,39.1,32.0,19.2,0000.0,0012.57,0004.47,0003.48
2022-06-05 09:55:00,,0819.6,5.01,0.00,30.2,29.2,00.0,39.1,32.0,19.1,0000.0,0012.66,0004.53,0003.48
2022-06-05 09:56:00,,0819.6,5.00,0.00,30.2,29.2,00.0,39.1,32.0,18.9,0000.0,0013.31,0004.53,0003.49
2022-06-05 09:57:00,,0819.5,4.99,0.00,30.2,29.2,00.0,39.1,32.1,18.9,0000.0,0013.33,0004.50,0003.48
2022-06-05 09:58:00,,0819.5,5.01,0.00,30.2,29.2,00.0,39.1,32.0,18.9,0000.0,0012.84,0004.53,0003.49
2022-06-05 09:59:00,,0819.5,5.00,0.00,30.2,29.2,00.0,39.1,32.1,18.9,0000.0,0012.31,0004.52,0003.49
